Weather History for Jacksonville, IL

Change the Weather History Date:

Saturday, April 26, 2014

  Actual Average (KSPI) Record (KSPI)
Temperature  
Mean Temperature 66 °F 57 °F  
Max Temperature 81 °F 69 °F 89 °F (1986)
Min Temperature 51 °F 46 °F 32 °F (1976)
Degree Days  
Heating Degree Days 0 9  
Month to date heating degree days 334  
Since 1 July heating degree days 5316  
Cooling Degree Days 1 1  
Month to date cooling degree days 15  
Year to date cooling degree days 17  
Growing Degree Days 16 (Base 50)    
Moisture  
Dew Point 44 °F    
Average Humidity 47    
Maximum Humidity 77    
Minimum Humidity 23    
Precipitation  
Precipitation 0.06 in 0.13 in 1.76 in (1890)
Month to date precipitation 2.99  
Year to date precipitation 9.25  
Snow  
Snow 0.00 in 0.00 in 0.00 in ()
Month to date snowfall 0.3  
Since 1 July snowfall 20.9  
Snow Depth -    
Sea Level Pressure  
Sea Level Pressure 29.86 in    
Wind  
Wind Speed 7 mph (South)    
Max Wind Speed 17 mph    
Max Gust Speed 26 mph    
Visibility 10 miles    
Events Rain , Thunderstorm    
T = Trace of Precipitation, MM = Missing Value Source: NWS Daily Summary

Daily Weather History Graph

Daily Weather History Graph

Search for Another Location

Airport:

Trip Planner

Search our weather history database for the weather conditions in past years. The results will help you decide how hot, cold, wet, or windy it might be!

Date:

Astronomy

Apr. 26, 2014 Rise Set
Actual Time 6:07 AM CDT 7:50 PM CDT
Civil Twilight 5:39 AM CDT 8:19 PM CDT
Nautical Twilight 5:04 AM CDT 8:54 PM CDT
Astronomical Twilight 4:27 AM CDT 9:31 PM CDT
Moon 4:31 AM CDT (4/26) 5:19 PM CDT (4/26)
Length of Visible Light 14h 40m
Length of Day
13h 42m
Waning Crescent, 8% of the Moon is Illuminated
Apr 26
Waning Crescent
Apr 29
New
May 6
First Quarter
May 14
Full
May 21
Last Quarter

Hourly Weather History & Observations

Time (CDT) Temp. Dew Point Humidity Pressure Visibility Wind Dir Wind Speed Gust Speed Precip Events Conditions
12:15 AM 59.4 °F 42.3 °F 53% 29.87 in 10.0 mi SSW 5.8 mph - N/A   Clear
12:35 AM 59.2 °F 41.7 °F 52% 29.87 in 10.0 mi South 4.6 mph - N/A   Clear
12:55 AM 59.0 °F 41.5 °F 52% 29.87 in 10.0 mi South 5.8 mph - N/A   Clear
1:15 AM 58.8 °F 41.9 °F 53% 29.86 in 10.0 mi South 8.1 mph - N/A   Clear
1:35 AM 59.2 °F 41.5 °F 52% 29.86 in 10.0 mi South 6.9 mph - N/A   Clear
1:55 AM 59.2 °F 41.2 °F 51% 29.85 in 10.0 mi South 6.9 mph - N/A   Clear
2:15 AM 58.5 °F 41.4 °F 53% 29.85 in 10.0 mi South 6.9 mph - N/A   Clear
2:35 AM 57.4 °F 41.4 °F 55% 29.85 in 10.0 mi SSW 5.8 mph - N/A   Clear
2:55 AM 56.3 °F 41.4 °F 57% 29.85 in 10.0 mi South 6.9 mph - N/A   Clear
3:15 AM 57.4 °F 41.4 °F 55% 29.85 in 10.0 mi South 6.9 mph - N/A   Clear
3:35 AM 57.6 °F 41.7 °F 56% 29.85 in 10.0 mi SSW 6.9 mph - N/A   Clear
3:55 AM 56.5 °F 41.7 °F 58% 29.85 in 10.0 mi SSW 5.8 mph - N/A   Clear
4:15 AM 55.2 °F 41.2 °F 59% 29.85 in 10.0 mi SSW 5.8 mph - N/A   Clear
4:35 AM 55.6 °F 41.0 °F 58% 29.85 in 10.0 mi SSW 8.1 mph - N/A   Clear
4:55 AM 56.7 °F 41.0 °F 56% 29.85 in 10.0 mi SSW 9.2 mph - N/A   Clear
5:15 AM 55.9 °F 40.8 °F 57% 29.86 in 10.0 mi SSW 6.9 mph - N/A   Clear
5:35 AM 55.8 °F 40.6 °F 57% 29.87 in 10.0 mi SSW 8.1 mph - N/A   Clear
5:55 AM 55.6 °F 40.5 °F 57% 29.87 in 10.0 mi SSW 8.1 mph - N/A   Clear
6:15 AM 55.4 °F 40.6 °F 58% 29.87 in 10.0 mi SSW 6.9 mph - N/A   Clear
6:35 AM 54.5 °F 40.5 °F 59% 29.88 in 10.0 mi WSW 4.6 mph - N/A   Clear
6:55 AM 51.8 °F 41.9 °F 69% 29.89 in 10.0 mi Calm Calm - N/A   Clear
7:15 AM 55.0 °F 42.8 °F 63% 29.90 in 10.0 mi SSW 3.5 mph - N/A   Clear
7:35 AM 58.1 °F 43.0 °F 57% 29.90 in 10.0 mi Calm Calm - N/A   Clear
7:55 AM 60.4 °F 41.7 °F 50% 29.90 in 10.0 mi Calm Calm - N/A   Clear
8:15 AM 62.1 °F 42.3 °F 48% 29.90 in 10.0 mi Calm Calm - N/A   Clear
8:35 AM 63.0 °F 41.7 °F 46% 29.90 in 10.0 mi SW 4.6 mph - N/A   Clear
8:55 AM 64.9 °F 41.7 °F 43% 29.90 in 10.0 mi SSW 3.5 mph - N/A   Clear
9:15 AM 66.2 °F 42.3 °F 42% 29.90 in 10.0 mi Calm Calm - N/A   Clear
9:35 AM 67.1 °F 41.7 °F 40% 29.90 in 10.0 mi Calm Calm - N/A   Clear
9:55 AM 68.9 °F 40.5 °F 35% 29.91 in 10.0 mi SSW 4.6 mph - N/A   Clear
10:15 AM 69.8 °F 41.4 °F 36% 29.91 in 10.0 mi SW 5.8 mph - N/A   Clear
10:35 AM 70.9 °F 41.5 °F 35% 29.91 in 10.0 mi SSW 5.8 mph - N/A   Clear
10:55 AM 72.9 °F 42.1 °F 33% 29.91 in 10.0 mi WSW 8.1 mph - N/A   Clear
11:15 AM 73.6 °F 43.5 °F 34% 29.91 in 10.0 mi SSW 9.2 mph - N/A   Clear
11:35 AM 74.3 °F 42.6 °F 32% 29.91 in 10.0 mi SW 5.8 mph - N/A   Clear
11:55 AM 75.7 °F 42.4 °F 30% 29.91 in 10.0 mi WSW 6.9 mph - N/A   Clear
12:15 PM 75.9 °F 42.6 °F 30% 29.90 in 10.0 mi WNW 3.5 mph - N/A   Clear
12:35 PM 77.0 °F 41.7 °F 28% 29.89 in 10.0 mi SW 5.8 mph - N/A   Clear
12:55 PM 77.2 °F 42.6 °F 29% 29.88 in 10.0 mi WSW 6.9 mph - N/A   Clear
1:15 PM 78.1 °F 41.0 °F 27% 29.88 in 10.0 mi SW 9.2 mph - N/A   Clear
1:35 PM 78.3 °F 41.0 °F 26% 29.88 in 10.0 mi SW 9.2 mph - N/A   Clear
1:55 PM 78.6 °F 42.6 °F 28% 29.88 in 10.0 mi South 9.2 mph - N/A   Clear
2:15 PM 78.4 °F 42.4 °F 28% 29.87 in 10.0 mi South 5.8 mph - N/A   Clear
2:35 PM 79.9 °F 43.5 °F 28% 29.87 in 10.0 mi South 9.2 mph - N/A   Clear
2:55 PM 81.3 °F 40.5 °F 23% 29.86 in 10.0 mi SSW 12.7 mph 18.4 mph N/A   Clear
3:15 PM 80.8 °F 43.5 °F 27% 29.84 in 10.0 mi SSE 9.2 mph - N/A   Clear
3:35 PM 80.2 °F 42.8 °F 26% 29.83 in 10.0 mi SSE 12.7 mph - N/A   Clear
3:55 PM 80.1 °F 42.8 °F 27% 29.83 in 10.0 mi SSE 11.5 mph 18.4 mph N/A   Clear
4:15 PM 79.3 °F 42.3 °F 27% 29.83 in 10.0 mi SE 8.1 mph 11.5 mph N/A   Clear
4:35 PM 79.5 °F 40.3 °F 25% 29.82 in 10.0 mi SSE 10.4 mph - N/A   Clear
4:55 PM 78.1 °F 40.8 °F 26% 29.82 in 10.0 mi SSE 11.5 mph 16.1 mph N/A   Clear
5:15 PM 78.1 °F 40.1 °F 26% 29.80 in 10.0 mi SE 5.8 mph - N/A   Clear
5:35 PM 77.0 °F 42.1 °F 29% 29.80 in 10.0 mi SE 13.8 mph - N/A   Clear
5:55 PM 76.1 °F 40.1 °F 27% 29.80 in 10.0 mi SE 10.4 mph - N/A Thunderstorm Clear
6:15 PM 75.0 °F 41.2 °F 30% 29.81 in 10.0 mi SSE 9.2 mph - N/A   Clear
6:35 PM 73.9 °F 40.6 °F 30% 29.82 in 10.0 mi SSE 8.1 mph - N/A   Clear
6:55 PM 73.4 °F 40.8 °F 31% 29.84 in 10.0 mi South 9.2 mph - N/A   Clear
7:15 PM 69.8 °F 48.9 °F 47% 29.84 in 10.0 mi SE 11.5 mph - N/A Rain Light Rain
7:35 PM 65.5 °F 52.5 °F 63% 29.86 in 10.0 mi SE 9.2 mph - 0.03 in Rain Rain
7:55 PM 63.9 °F 52.7 °F 67% 29.80 in 10.0 mi East 16.1 mph - 0.06 in Rain Light Rain
8:15 PM 64.0 °F 54.5 °F 71% 29.80 in 10.0 mi SSE 17.3 mph - N/A   Scattered Clouds
8:35 PM 65.5 °F 53.2 °F 65% 29.80 in 10.0 mi SE 15.0 mph 26.5 mph N/A   Clear
8:55 PM 65.7 °F 52.0 °F 61% 29.80 in 10.0 mi SSE 15.0 mph 19.6 mph N/A   Clear
9:15 PM 65.8 °F 51.6 °F 60% 29.83 in 10.0 mi SSE 11.5 mph 16.1 mph N/A   Clear
9:35 PM 65.3 °F 51.6 °F 61% 29.83 in 10.0 mi ESE 6.9 mph - N/A   Clear
9:55 PM 62.6 °F 52.2 °F 69% 29.85 in 10.0 mi NE 5.8 mph - N/A   Clear
10:15 PM 63.0 °F 52.3 °F 68% 29.83 in 10.0 mi East 12.7 mph - N/A   Clear
10:35 PM 61.0 °F 53.4 °F 76% 29.81 in 10.0 mi East 11.5 mph - N/A   Clear
10:55 PM 61.3 °F 52.5 °F 73% 29.80 in 10.0 mi East 15.0 mph - N/A   Clear
11:15 PM 60.1 °F 52.9 °F 77% 29.83 in 10.0 mi Calm Calm - N/A   Clear
11:35 PM 60.6 °F 52.7 °F 75% 29.83 in 10.0 mi NE 4.6 mph - N/A   Clear
11:55 PM 60.1 °F 51.8 °F 74% 29.84 in 10.0 mi North 15.0 mph - N/A   Clear